Regional Weather Roundup
Issued by NWS

Home | Current Version | Previous Version | Graphics & Text | Print | Product List | Glossary On
Versions: 1 2 3 4 5 6 7 8 9 10 11 12 13 14 15 16 17 18 19 20 21 22 23 24 25 26 27 28 29 30 31 32 33 34 35 36 37 38 39 40 41 42 43 44 45 46 47 48 49 50
716
ASUS44 KLIX 191605
RWRLA
LOUISIANA WEATHER ROUNDUP
NATIONAL WEATHER SERVICE NEW ORLEANS LA
1000 AM CST FRI DEC 19 2014

NOTE: "FAIR" INDICATES FEW OR NO CLOUDS BELOW 12,000 FEET WITH NO
      SIGNIFICANT WEATHER AND/OR OBSTRUCTIONS TO VISIBILITY.
      SKY/WX - SKY CONDITION AND SIGNIFICANT WEATHER.
      TMP - AIR TEMPERATURE.    DP   - DEWPOINT TEMPERATURE.
      RH  - RELATIVE HUMIDITY.  PRES - PRESSURE.
      HX  - HEAT INDEX.         WCI  - WIND CHILL INDEX.

*  THESE STATIONS ARE NOT NWS OR FAA STATIONS AND ARE NOT UNDER
   NWS QUALITY CONTROL.

LAZ040-048-061>063-065-066-069-191700-
SOUTHEAST LOUISIANA

CITY           SKY/WX    TMP DP  RH WIND       PRES   REMARKS
N.O. AUDUBON     N/A     60  53  78 MISG        N/A
N.O. INTL ARPT CLOUDY    56  52  86 NE14      30.13F
N.O. LAKEFRONT CLOUDY    56  52  86 NE18      30.15F
N.O. DOWNTOWN* CLOUDY    57  48  72 NE9       30.14F
SLIDELL        LGT RAIN  50  47  89 E7        30.16F
BATON ROUGE    LGT RAIN  55  53  93 E10       30.12S
BOOTHVILLE     LGT RAIN  58  55  90 NE14G20   30.13S FOG
BELLE CHASSE   CLOUDY    58  53  84 NE17      30.13F
BOGALUSA*        N/A     49  45  85 NE7       30.19F
GALLIANO*      DRIZZLE   59  56  88 MISG      30.13S
NEW ROADS*     CLOUDY    55  53  95 E6        30.13R
GONZALES*      CLOUDY    58  55  91 E8        30.12F
HAMMOND*       NOT AVBL
HOUMA*         LGT RAIN  55  54  94 NE12G20   30.12F
PORT FOURCHON* CLOUDY    61  57  88 NE14      30.14R

$$

LAZ041-044-053-054-191700-
SOUTHWEST LOUISIANA

CITY           SKY/WX    TMP DP  RH WIND       PRES   REMARKS
LAKE CHARLES   CLOUDY    56  55  97 NE10      30.11R
LAFAYETTE      CLOUDY    57  57 100 E8        30.08F
PATTERSON      CLOUDY    55  54  94 E9        30.14R
SALT POINT       N/A     60  55  83 VRB5      30.10R
NEW IBERIA     RAIN      57  54  89 E12       30.11R FOG
CHENAULT AIRPK CLOUDY    55  54  94 NE7       30.11R

$$

LAZ027-028-191700-
CENTRAL LOUISIANA

CITY           SKY/WX    TMP DP  RH WIND       PRES   REMARKS
FORT POLK      LGT RAIN  53  52  97 E6        30.12S FOG
ALEXANDRIA INT LGT RAIN  52  50  93 NE7       30.13F
ALEXANDRIA     LGT RAIN  51  49  92 NE5       30.15S

$$

LAZ001-002-191700-
NORTHWEST LOUISIANA

CITY           SKY/WX    TMP DP  RH WIND       PRES   REMARKS
SHREVEPORT     RAIN      47  46  97 N12       30.24R FOG
BARKSDALE AFB  NOT AVBL
DTN SHREVEPORT HVY RAIN  46  44  93 N8        30.24R FOG

$$

LAZ014-016-191700-
NORTHEAST LOUISIANA

CITY           SKY/WX    TMP DP  RH WIND       PRES   REMARKS
MONROE         RAIN      47  46  97 NE9       30.22F FOG
TALLULAH       RAIN      48  43  82 NE7       30.22R

$$




USA.gov is the U.S. government's official web portal to all federal, state and local government web resources and services.